Time,TemperatureF,DewpointF,PressureIn,WindDirection,WindDirectionDegrees,WindSpeedMPH,WindSpeedGustMPH,Humidity,HourlyPrecipIn,Conditions,Clouds,dailyrainin,SolarRadiationWatts/m^2,SoftwareType,DateUTC
2013-04-16 00:03:00,57.0,56.0,-100.00,North,5,1.0,4.0,96,0.00,,,0.36,0.000000,,2013-04-16 04:03:00,
2013-04-16 00:23:00,57.0,56.0,-100.00,NNE,25,1.0,3.0,97,0.00,,,0.36,0.000000,,2013-04-16 04:23:00,
2013-04-16 00:33:00,57.0,56.0,-100.00,NNE,25,1.0,3.0,97,0.00,,,0.36,0.000000,,2013-04-16 04:33:00,
2013-04-16 00:42:00,57.0,56.0,-100.00,NNE,25,1.0,3.0,97,0.00,,,0.36,0.000000,,2013-04-16 04:42:00,
2013-04-16 00:53:00,57.0,56.0,-100.00,NNE,25,1.0,3.0,97,0.00,,,0.36,0.000000,,2013-04-16 04:53:00,
2013-04-16 01:02:00,57.0,56.0,-100.00,NNE,25,1.0,3.0,97,0.00,,,0.36,0.000000,,2013-04-16 05:02:00,
2013-04-16 01:22:00,58.0,56.0,-100.00,North,6,1.0,4.0,93,0.00,,,0.35,0.000000,,2013-04-16 05:22:00,
2013-04-16 01:32:00,58.0,56.0,-100.00,North,6,1.0,4.0,93,0.00,,,0.35,0.000000,,2013-04-16 05:32:00,
2013-04-16 01:42:00,58.0,56.0,-100.00,North,6,1.0,4.0,93,0.00,,,0.35,0.000000,,2013-04-16 05:42:00,
2013-04-16 01:52:00,58.0,56.0,-100.00,North,6,1.0,4.0,93,0.00,,,0.35,0.000000,,2013-04-16 05:52:00,
2013-04-16 02:02:00,58.0,56.0,-100.00,North,6,1.0,4.0,93,0.00,,,0.35,0.000000,,2013-04-16 06:02:00,
2013-04-16 02:22:00,58.0,56.0,-100.00,NE,43,1.0,2.0,93,0.00,,,0.32,0.000000,,2013-04-16 06:22:00,
2013-04-16 02:32:00,58.0,56.0,-100.00,NE,43,1.0,2.0,93,0.00,,,0.32,0.000000,,2013-04-16 06:32:00,
2013-04-16 02:42:00,58.0,56.0,-100.00,NE,43,1.0,2.0,93,0.00,,,0.32,0.000000,,2013-04-16 06:42:00,
2013-04-16 02:52:00,58.0,56.0,-100.00,NE,43,1.0,2.0,93,0.00,,,0.32,0.000000,,2013-04-16 06:52:00,
2013-04-16 03:02:00,58.0,56.0,-100.00,NE,43,1.0,2.0,93,0.00,,,0.32,0.000000,,2013-04-16 07:02:00,
2013-04-16 03:22:00,58.0,55.0,-100.00,South,178,1.0,2.0,91,0.00,,,0.31,0.000000,,2013-04-16 07:22:00,
2013-04-16 03:32:00,58.0,55.0,-100.00,South,178,1.0,2.0,91,0.00,,,0.31,0.000000,,2013-04-16 07:32:00,
2013-04-16 03:42:00,58.0,55.0,-100.00,South,178,1.0,2.0,91,0.00,,,0.31,0.000000,,2013-04-16 07:42:00,
2013-04-16 03:53:00,58.0,55.0,-100.00,South,178,1.0,2.0,91,0.00,,,0.31,0.000000,,2013-04-16 07:53:00,
2013-04-16 04:02:00,58.0,55.0,-100.00,South,178,1.0,2.0,91,0.00,,,0.31,0.000000,,2013-04-16 08:02:00,
2013-04-16 04:32:00,57.0,56.0,-100.00,WSW,239,0.0,2.0,95,0.00,,,0.29,0.000000,,2013-04-16 08:32:00,
2013-04-16 04:42:00,57.0,56.0,-100.00,WSW,239,0.0,2.0,95,0.00,,,0.29,0.000000,,2013-04-16 08:42:00,
2013-04-16 04:52:00,57.0,56.0,-100.00,WSW,239,0.0,2.0,95,0.00,,,0.29,0.000000,,2013-04-16 08:52:00,
2013-04-16 05:02:00,57.0,56.0,-100.00,WSW,239,0.0,2.0,95,0.00,,,0.29,0.000000,,2013-04-16 09:02:00,
2013-04-16 05:22:00,57.0,56.0,-100.00,NNE,18,0.0,3.0,97,0.00,,,0.26,0.000000,,2013-04-16 09:22:00,
2013-04-16 05:33:00,57.0,56.0,-100.00,NNE,18,0.0,3.0,97,0.00,,,0.26,0.000000,,2013-04-16 09:33:00,
2013-04-16 05:43:00,57.0,56.0,-100.00,NNE,18,0.0,3.0,97,0.00,,,0.26,0.000000,,2013-04-16 09:43:00,
2013-04-16 05:53:00,57.0,56.0,-100.00,NNE,18,0.0,3.0,97,0.00,,,0.26,0.000000,,2013-04-16 09:53:00,
2013-04-16 06:03:00,57.0,56.0,-100.00,NNE,18,0.0,3.0,97,0.00,,,0.26,0.000000,,2013-04-16 10:03:00,
2013-04-16 06:23:00,57.0,56.0,-100.00,NE,55,0.0,4.0,96,0.00,,,0.19,0.000000,,2013-04-16 10:23:00,
2013-04-16 06:33:00,57.0,56.0,-100.00,NE,55,0.0,4.0,96,0.00,,,0.19,0.000000,,2013-04-16 10:33:00,
2013-04-16 06:43:00,57.0,56.0,-100.00,NE,55,0.0,4.0,96,0.00,,,0.19,0.000000,,2013-04-16 10:43:00,
2013-04-16 06:53:00,57.0,56.0,-100.00,NE,55,0.0,4.0,96,0.00,,,0.19,0.000000,,2013-04-16 10:53:00,
2013-04-16 07:03:00,57.0,56.0,-100.00,NE,55,0.0,4.0,96,0.00,,,0.19,0.000000,,2013-04-16 11:03:00,
2013-04-16 07:22:00,57.0,56.0,-100.00,East,93,0.0,2.0,98,0.00,,,0.16,1.000000,,2013-04-16 11:22:00,
2013-04-16 07:32:00,57.0,56.0,-100.00,East,93,0.0,2.0,98,0.00,,,0.16,1.000000,,2013-04-16 11:32:00,
2013-04-16 07:42:00,57.0,56.0,-100.00,East,93,0.0,2.0,98,0.00,,,0.16,1.000000,,2013-04-16 11:42:00,
2013-04-16 07:53:00,57.0,56.0,-100.00,East,93,0.0,2.0,98,0.00,,,0.16,1.000000,,2013-04-16 11:53:00,
2013-04-16 08:02:00,57.0,56.0,-100.00,East,93,0.0,2.0,98,0.00,,,0.16,1.000000,,2013-04-16 12:02:00,
2013-04-16 08:32:00,58.0,56.0,-100.00,NE,45,1.0,3.0,93,0.00,,,0.12,23.000000,,2013-04-16 12:32:00,
2013-04-16 08:42:00,58.0,56.0,-100.00,NE,45,1.0,3.0,93,0.00,,,0.12,23.000000,,2013-04-16 12:42:00,
2013-04-16 08:52:00,58.0,56.0,-100.00,NE,45,1.0,3.0,93,0.00,,,0.12,23.000000,,2013-04-16 12:52:00,
2013-04-16 09:02:00,58.0,56.0,-100.00,NE,45,1.0,3.0,93,0.00,,,0.12,23.000000,,2013-04-16 13:02:00,
2013-04-16 09:32:00,60.0,57.0,-100.00,NE,55,1.0,4.0,89,0.00,,,0.10,102.000000,,2013-04-16 13:32:00,
2013-04-16 09:42:00,60.0,57.0,-100.00,NE,55,1.0,4.0,89,0.00,,,0.10,102.000000,,2013-04-16 13:42:00,
2013-04-16 09:52:00,60.0,57.0,-100.00,NE,55,1.0,4.0,89,0.00,,,0.10,102.000000,,2013-04-16 13:52:00,
2013-04-16 10:02:00,60.0,57.0,-100.00,NE,55,1.0,4.0,89,0.00,,,0.10,102.000000,,2013-04-16 14:02:00,
2013-04-16 10:23:00,63.0,58.0,-100.00,SE,124,1.0,3.0,85,0.00,,,0.09,165.000000,,2013-04-16 14:23:00,
2013-04-16 10:32:00,63.0,58.0,-100.00,SE,124,1.0,3.0,85,0.00,,,0.09,165.000000,,2013-04-16 14:32:00,
2013-04-16 10:42:00,63.0,58.0,-100.00,SE,124,1.0,3.0,85,0.00,,,0.09,165.000000,,2013-04-16 14:42:00,
2013-04-16 10:52:00,63.0,58.0,-100.00,SE,124,1.0,3.0,85,0.00,,,0.09,165.000000,,2013-04-16 14:52:00,
2013-04-16 11:02:00,63.0,58.0,-100.00,SE,124,1.0,3.0,85,0.00,,,0.09,165.000000,,2013-04-16 15:02:00,
2013-04-16 11:33:00,66.0,60.0,-100.00,SSE,160,2.0,5.0,82,0.00,,,0.04,349.000000,,2013-04-16 15:33:00,
2013-04-16 11:43:00,66.0,60.0,-100.00,SSE,160,2.0,5.0,82,0.00,,,0.04,349.000000,,2013-04-16 15:43:00,
2013-04-16 11:53:00,66.0,60.0,-100.00,SSE,160,2.0,5.0,82,0.00,,,0.04,349.000000,,2013-04-16 15:53:00,
2013-04-16 12:03:00,66.0,60.0,-100.00,SSE,160,2.0,5.0,82,0.00,,,0.04,349.000000,,2013-04-16 16:03:00,
2013-04-16 12:23:00,70.0,61.0,-100.00,SSW,198,4.0,8.0,72,0.00,,,0.01,892.000000,,2013-04-16 16:23:00,
2013-04-16 12:33:00,70.0,61.0,-100.00,SSW,198,4.0,8.0,72,0.00,,,0.01,892.000000,,2013-04-16 16:33:00,
2013-04-16 12:42:00,70.0,61.0,-100.00,SSW,198,4.0,8.0,72,0.00,,,0.01,892.000000,,2013-04-16 16:42:00,
2013-04-16 12:53:00,70.0,61.0,-100.00,SSW,198,4.0,8.0,72,0.00,,,0.01,892.000000,,2013-04-16 16:53:00,
2013-04-16 13:02:00,70.0,61.0,-100.00,SSW,198,4.0,8.0,72,0.00,,,0.01,892.000000,,2013-04-16 17:02:00,
2013-04-16 13:33:00,72.0,60.0,-100.00,SSE,166,7.0,11.0,67,0.00,,,0.00,863.000000,,2013-04-16 17:33:00,
2013-04-16 13:43:00,72.0,60.0,-100.00,SSE,166,7.0,11.0,67,0.00,,,0.00,863.000000,,2013-04-16 17:43:00,
2013-04-16 13:53:00,72.0,60.0,-100.00,SSE,166,7.0,11.0,67,0.00,,,0.00,863.000000,,2013-04-16 17:53:00,
2013-04-16 14:02:00,72.0,60.0,-100.00,SSE,166,7.0,11.0,67,0.00,,,0.00,863.000000,,2013-04-16 18:02:00,
2013-04-16 14:32:00,75.0,61.0,-100.00,SSW,195,5.0,9.0,61,0.00,,,0.00,1043.000000,,2013-04-16 18:32:00,
2013-04-16 14:43:00,75.0,61.0,-100.00,SSW,195,5.0,9.0,61,0.00,,,0.00,1043.000000,,2013-04-16 18:43:00,
2013-04-16 14:52:00,75.0,61.0,-100.00,SSW,195,5.0,9.0,61,0.00,,,0.00,1043.000000,,2013-04-16 18:52:00,
2013-04-16 15:02:00,75.0,61.0,-100.00,SSW,195,5.0,9.0,61,0.00,,,0.00,1043.000000,,2013-04-16 19:02:00,
2013-04-16 15:22:00,76.0,59.0,-100.00,South,176,7.0,13.0,56,0.00,,,0.00,924.000000,,2013-04-16 19:22:00,
2013-04-16 15:32:00,76.0,59.0,-100.00,South,176,7.0,13.0,56,0.00,,,0.00,924.000000,,2013-04-16 19:32:00,
2013-04-16 15:43:00,76.0,59.0,-100.00,South,176,7.0,13.0,56,0.00,,,0.00,924.000000,,2013-04-16 19:43:00,
2013-04-16 15:52:00,76.0,59.0,-100.00,South,176,7.0,13.0,56,0.00,,,0.00,924.000000,,2013-04-16 19:52:00,
2013-04-16 16:02:00,76.0,59.0,-100.00,South,176,7.0,13.0,56,0.00,,,0.00,924.000000,,2013-04-16 20:02:00,
2013-04-16 16:32:00,77.0,57.0,-100.00,SSW,206,6.0,12.0,51,0.00,,,0.00,814.000000,,2013-04-16 20:32:00,
2013-04-16 16:42:00,77.0,57.0,-100.00,SSW,206,6.0,12.0,51,0.00,,,0.00,814.000000,,2013-04-16 20:42:00,
2013-04-16 16:52:00,77.0,57.0,-100.00,SSW,206,6.0,12.0,51,0.00,,,0.00,814.000000,,2013-04-16 20:52:00,
2013-04-16 17:02:00,77.0,57.0,-100.00,SSW,206,6.0,12.0,51,0.00,,,0.00,814.000000,,2013-04-16 21:02:00,
2013-04-16 17:22:00,78.0,58.0,-100.00,SW,224,6.0,11.0,50,0.00,,,0.00,730.000000,,2013-04-16 21:22:00,
2013-04-16 17:33:00,78.0,58.0,-100.00,SW,224,6.0,11.0,50,0.00,,,0.00,730.000000,,2013-04-16 21:33:00,
2013-04-16 17:43:00,78.0,58.0,-100.00,SW,224,6.0,11.0,50,0.00,,,0.00,730.000000,,2013-04-16 21:43:00,
2013-04-16 17:53:00,78.0,58.0,-100.00,SW,224,6.0,11.0,50,0.00,,,0.00,730.000000,,2013-04-16 21:53:00,
2013-04-16 18:03:00,78.0,58.0,-100.00,SW,224,6.0,11.0,50,0.00,,,0.00,730.000000,,2013-04-16 22:03:00,
2013-04-16 18:33:00,75.0,55.0,-100.00,SSW,198,5.0,11.0,49,0.00,,,0.00,434.000000,,2013-04-16 22:33:00,
2013-04-16 18:43:00,75.0,55.0,-100.00,SSW,198,5.0,11.0,49,0.00,,,0.00,434.000000,,2013-04-16 22:43:00,
2013-04-16 18:52:00,75.0,55.0,-100.00,SSW,198,5.0,11.0,49,0.00,,,0.00,434.000000,,2013-04-16 22:52:00,
2013-04-16 19:02:00,75.0,55.0,-100.00,SSW,198,5.0,11.0,49,0.00,,,0.00,434.000000,,2013-04-16 23:02:00,
2013-04-16 19:32:00,75.0,58.0,-100.00,South,172,6.0,9.0,56,0.00,,,0.00,211.000000,,2013-04-16 23:32:00,
2013-04-16 19:43:00,75.0,58.0,-100.00,South,172,6.0,9.0,56,0.00,,,0.00,211.000000,,2013-04-16 23:43:00,
2013-04-16 19:52:00,75.0,58.0,-100.00,South,172,6.0,9.0,56,0.00,,,0.00,211.000000,,2013-04-16 23:52:00,
2013-04-16 20:02:00,75.0,58.0,-100.00,South,172,6.0,9.0,56,0.00,,,0.00,211.000000,,2013-04-17 00:02:00,
2013-04-16 20:32:00,69.0,56.0,-100.00,SE,135,2.0,9.0,63,0.00,,,0.00,26.000000,,2013-04-17 00:32:00,
2013-04-16 20:42:00,69.0,56.0,-100.00,SE,135,2.0,9.0,63,0.00,,,0.00,26.000000,,2013-04-17 00:42:00,
2013-04-16 20:52:00,69.0,56.0,-100.00,SE,135,2.0,9.0,63,0.00,,,0.00,26.000000,,2013-04-17 00:52:00,
2013-04-16 21:02:00,69.0,56.0,-100.00,SE,135,2.0,9.0,63,0.00,,,0.00,26.000000,,2013-04-17 01:02:00,
2013-04-16 21:32:00,64.0,57.0,-100.00,NNW,330,1.0,4.0,79,0.00,,,0.00,0.000000,,2013-04-17 01:32:00,
2013-04-16 21:42:00,64.0,57.0,-100.00,NNW,330,1.0,4.0,79,0.00,,,0.00,0.000000,,2013-04-17 01:42:00,
2013-04-16 21:52:00,64.0,57.0,-100.00,NNW,330,1.0,4.0,79,0.00,,,0.00,0.000000,,2013-04-17 01:52:00,
2013-04-16 22:02:00,64.0,57.0,-100.00,NNW,330,1.0,4.0,79,0.00,,,0.00,0.000000,,2013-04-17 02:02:00,
2013-04-16 22:22:00,63.0,58.0,-100.00,NNE,16,1.0,2.0,85,0.00,,,0.00,0.000000,,2013-04-17 02:22:00,
2013-04-16 22:32:00,63.0,58.0,-100.00,NNE,16,1.0,2.0,85,0.00,,,0.00,0.000000,,2013-04-17 02:32:00,
2013-04-16 22:42:00,63.0,58.0,-100.00,NNE,16,1.0,2.0,85,0.00,,,0.00,0.000000,,2013-04-17 02:42:00,
2013-04-16 22:52:00,63.0,58.0,-100.00,NNE,16,1.0,2.0,85,0.00,,,0.00,0.000000,,2013-04-17 02:52:00,
2013-04-16 23:02:00,63.0,58.0,-100.00,NNE,16,1.0,2.0,85,0.00,,,0.00,0.000000,,2013-04-17 03:02:00,
2013-04-16 23:33:00,62.0,58.0,-100.00,NNW,340,1.0,3.0,86,0.00,,,0.00,0.000000,,2013-04-17 03:33:00,
2013-04-16 23:42:00,62.0,58.0,-100.00,NNW,340,1.0,3.0,86,0.00,,,0.00,0.000000,,2013-04-17 03:42:00,
2013-04-16 23:53:00,62.0,58.0,-100.00,NNW,340,1.0,3.0,86,0.00,,,0.00,0.000000,,2013-04-17 03:53:00,